TimeMDT,TemperatureF,Dew PointF,Humidity,Sea Level PressureIn,VisibilityMPH,Wind Direction,Wind SpeedMPH,Gust SpeedMPH,PrecipitationIn,Events,Conditions,WindDirDegrees,DateUTC
12:39 AM,39.2,35.6,87,29.86,10.0,Calm,Calm,-,N/A,,Scattered Clouds,0,2012-10-22 06:39:00
12:53 AM,39.0,35.1,86,29.89,10.0,Calm,Calm,-,N/A,,Partly Cloudy,0,2012-10-22 06:53:00
1:53 AM,35.1,33.1,92,29.88,10.0,Calm,Calm,-,N/A,,Partly Cloudy,0,2012-10-22 07:53:00
2:53 AM,33.1,32.0,96,29.87,10.0,Calm,Calm,-,N/A,,Clear,0,2012-10-22 08:53:00
3:53 AM,33.1,30.9,92,29.88,10.0,NW,6.9,-,N/A,,Clear,310,2012-10-22 09:53:00
4:53 AM,34.0,32.0,92,29.89,10.0,WNW,5.8,-,N/A,,Partly Cloudy,290,2012-10-22 10:53:00
5:53 AM,33.1,32.0,96,29.89,8.0,Calm,Calm,-,N/A,,Overcast,0,2012-10-22 11:53:00
6:53 AM,34.0,32.0,92,29.88,9.0,Calm,Calm,-,N/A,,Mostly Cloudy,0,2012-10-22 12:53:00
7:53 AM,35.1,34.0,96,29.88,10.0,South,4.6,-,N/A,,Mostly Cloudy,180,2012-10-22 13:53:00
8:53 AM,37.0,35.1,93,29.90,10.0,Calm,Calm,-,N/A,,Overcast,0,2012-10-22 14:53:00
9:53 AM,39.0,37.0,93,29.88,10.0,WNW,5.8,-,0.01,,Overcast,290,2012-10-22 15:53:00
10:53 AM,39.9,37.0,89,29.86,10.0,ENE,4.6,-,N/A,,Overcast,60,2012-10-22 16:53:00
11:53 AM,41.0,37.9,89,29.83,10.0,Calm,Calm,-,0.00,Rain,Light Rain,0,2012-10-22 17:53:00
12:53 PM,45.0,39.9,82,29.78,10.0,Calm,Calm,-,0.00,,Overcast,0,2012-10-22 18:53:00
1:08 PM,44.6,39.2,81,29.74,10.0,North,3.5,-,N/A,,Overcast,360,2012-10-22 19:08:00
1:32 PM,46.4,39.2,76,29.72,10.0,NNE,4.6,-,N/A,,Overcast,20,2012-10-22 19:32:00
1:53 PM,45.0,39.9,82,29.75,10.0,NNW,5.8,-,N/A,,Overcast,330,2012-10-22 19:53:00
2:41 PM,46.4,41.0,81,29.67,10.0,NW,9.2,-,N/A,,Overcast,320,2012-10-22 20:41:00
2:53 PM,46.9,41.0,80,29.71,10.0,NW,11.5,-,N/A,,Overcast,310,2012-10-22 20:53:00
3:00 PM,46.4,41.0,81,29.66,10.0,NW,9.2,-,N/A,,Mostly Cloudy,310,2012-10-22 21:00:00
3:34 PM,46.4,41.0,81,29.64,10.0,NW,5.8,-,N/A,,Mostly Cloudy,310,2012-10-22 21:34:00
3:53 PM,46.9,41.0,80,29.67,10.0,NW,5.8,-,N/A,,Overcast,320,2012-10-22 21:53:00
4:53 PM,46.9,41.0,80,29.62,10.0,NE,5.8,-,N/A,,Overcast,40,2012-10-22 22:53:00
5:53 PM,46.0,41.0,83,29.61,10.0,NW,9.2,-,N/A,,Overcast,310,2012-10-22 23:53:00
6:53 PM,45.0,39.9,82,29.62,10.0,WNW,12.7,-,N/A,,Overcast,290,2012-10-23 00:53:00
7:53 PM,43.0,41.0,93,29.65,10.0,WNW,16.1,-,N/A,,Overcast,300,2012-10-23 01:53:00
8:38 PM,42.8,42.8,100,29.63,10.0,WSW,6.9,-,0.00,Rain,Light Rain,250,2012-10-23 02:38:00
8:53 PM,44.1,42.1,93,29.64,10.0,South,3.5,-,0.00,,Overcast,190,2012-10-23 02:53:00
9:53 PM,42.1,42.1,100,29.62,10.0,SW,6.9,-,N/A,,Mostly Cloudy,220,2012-10-23 03:53:00
10:53 PM,46.0,43.0,89,29.61,10.0,SSE,11.5,19.6,N/A,,Overcast,150,2012-10-23 04:53:00
11:53 PM,44.6,41.0,87,29.59,10.0,NW,3.5,-,N/A,,Mostly Cloudy,310,2012-10-23 05:53:00